Terug naar catalogus

STARLINK-35962

ActiefCommunicatieVLEO
NORAD 66518·PAYLOAD·🇺🇸 United States

Gelanceerd Nov 19, 2025 vanaf Cape Canaveral Space Force Station

Loading…

Volgende Passages (komende 24 uur)

TLE

VersSource: CelesTrak SupGP

Epoch: Sep 15, 2026, 03:18 UTC

1 66518C 25265C   26258.13798611  .00004261  00000+0  15432-3 0  2583
2 66518  43.0026 288.3353 0001366 267.1573  92.9978 15.27578374    16

Volg STARLINK-35962 in realtime met AllMySat

Download on the App Store